Location: Fort Worth, Tx
(32.7431°N, 97.3695°W)
Time: 01:37:40
(UTC-05:00)

Hubble Space Telescope - Visible Passes

Search period start: 12 December 2019 00:00
Search period end: 22 December 2019 00:00
Orbit: 536 x 540 km, 28.5° (Epoch: 11 December)

Date Brightness Start Highest point End Pass type
(mag) Time Alt. Az. Time Alt. Az. Time Alt. Az.
12 Dec 3.5 06:56:18 10° S 06:58:34 14° SSE 07:00:51 10° ESE visible
13 Dec 3.2 06:45:04 10° SSW 06:47:53 18° SSE 06:50:41 10° ESE visible
14 Dec 2.9 06:35:04 15° SSW 06:37:11 21° SSE 06:40:21 10° ESE visible
15 Dec 2.5 06:25:33 23° S 06:26:31 25° SSE 06:29:56 10° ESE visible
16 Dec 2.3 06:15:54 29° SSE 06:15:54 29° SSE 06:19:28 10° ESE visible
16 Dec 1.7 07:52:46 10° WSW 07:56:44 46° S 08:00:42 10° ESE visible
17 Dec 2.5 06:06:09 29° SE 06:06:09 29° SE 06:08:56 10° ESE visible
17 Dec 1.6 07:42:08 10° WSW 07:46:07 46° S 07:50:05 10° ESE visible
18 Dec 2.9 05:56:19 25° ESE 05:56:19 25° ESE 05:58:23 10° ESE visible
18 Dec 1.6 07:31:40 11° WSW 07:35:29 46° S 07:39:27 10° ESE visible
19 Dec 3.3 05:46:26 19° ESE 05:46:26 19° ESE 05:47:48 10° ESE visible
19 Dec 1.6 07:21:46 15° WSW 07:24:51 44° S 07:28:48 10° ESE visible
20 Dec 3.8 05:36:30 14° ESE 05:36:30 14° ESE 05:37:12 10° ESE visible
20 Dec 1.7 07:11:50 20° WSW 07:14:13 41° S 07:18:07 10° ESE visible
21 Dec 4.1 05:26:32 10° ESE 05:26:32 10° ESE 05:26:36 10° ESE visible
21 Dec 1.8 07:01:53 25° WSW 07:03:34 37° S 07:07:24 10° ESE visible
